Zurück zum Katalog

RADUGA 1M-1

AktivMilitärGEO
NORAD 32373·PAYLOAD·🇷🇺 Russia

Gestartet Dec 9, 2007 von Baikonur Cosmodrome

Loading…

TLE

AktuellSource: Space-Track

Epoche: Sep 14, 2026, 17:09 UTC

1 32373U 07058A   26257.71521400 -.00000219  00000-0  00000-0 0  9993
2 32373  10.3713  50.8684 0001584 153.6611  34.3374  0.99400680 53285

Verfolge RADUGA 1M-1 in Echtzeit mit AllMySat

Download on the App Store